CW7595 Weather Reports


Display with metric or nautical units.
time (UTC)temp
F
wind
direction
speed
MPH
gust
MPH
rain 1hr
in
rain 24hr
in
rain mn
in
humidity
%
barometer
mb
20260505224547 59 174 2.0 9.0 0.07 0.19 0.18 81 1000.3
20260505223044 59 196 2.0 7.0 0.09 0.16 0.15 82 1000.7
20260505221543 59 220 0.0 3.0 0.13 0.14 0.13 81 1000.5
20260505220042 59 279 2.0 12.0 0.11 0.12 0.11 80 1000.3
20260505214543 60 261 8.0 20.0 0.10 0.11 0.10 78 1000.2
20260505213051 69 267 13.0 33.0 0.04 0.05 0.04 61 999.2
20260505211542 74 184 2.0 22.0 0.00 0.01 0.00 38 996.9
20260505210038 74 175 5.0 21.0 0.00 0.01 0.00 38 996.4
20260505204537 75 188 5.0 20.0 0.00 0.01 0.00 37 996.7
20260505203037 76 177 4.0 13.0 0.00 0.01 0.00 36 996.9
20260505201533 76 169 3.0 14.0 0.00 0.01 0.00 36 997.1
20260505200031 75 207 3.0 16.0 0.00 0.01 0.00 37 997.3
20260505194530 76 187 3.0 14.0 0.00 0.01 0.00 35 997.6
20260505193028 76 248 4.0 17.0 0.00 0.01 0.00 36 997.8
20260505191525 75 123 5.0 14.0 0.00 0.01 0.00 38 997.8
20260505190024 75 173 4.0 17.0 0.00 0.01 0.00 38 998.0
20260505184521 75 225 5.0 20.0 0.00 0.01 0.00 37 998.5
20260505183022 74 196 5.0 13.0 0.00 0.01 0.00 38 999.1
20260505181516 74 180 2.0 14.0 0.00 0.01 0.00 39 999.3
20260505180034 73 173 3.0 16.0 0.00 0.01 0.00 41 999.7
20260505174511 70 179 0.0 16.0 0.00 0.01 0.00 45 1000.2
20260505173010 70 178 5.0 15.0 0.00 0.01 0.00 41 1000.4
20260505171509 71 199 2.0 16.0 0.00 0.01 0.00 40 1000.2
20260505170011 71 183 4.0 20.0 0.00 0.01 0.00 40 1000.2
20260505164507 71 161 4.0 14.0 0.00 0.01 0.00 39 1000.3
20260505163006 70 172 6.0 21.0 0.00 0.01 0.00 39 1000.6
20260505161504 71 186 3.0 19.0 0.00 0.01 0.00 36 1000.5
20260505153059 72 187 4.0 14.0 0.00 0.01 0.00 36 1001.0
20260505151555 71 187 3.0 14.0 0.00 0.01 0.00 39 1001.2
20260505124517 53 179 1.0 7.0 0.00 0.01 0.00 71 1002.7
20260505123026 51 178 2.0 7.0 0.00 0.01 0.00 74 1002.6
20260505121511 50 169 2.0 8.0 0.00 0.01 0.00 75 1002.5
20260505120015 48 177 0.0 5.0 0.00 0.01 0.00 78 1002.8
20260505114503 47 159 0.0 6.0 0.00 0.01 0.00 79 1003.2
20260505113059 46 175 0.0 7.0 0.00 0.01 0.00 80 1003.4
20260505111559 45 183 1.0 6.0 0.00 0.01 0.00 81 1003.5
20260505101608 43 175 1.0 6.0 0.00 0.01 0.00 83 1003.5
20260505100104 42 171 1.0 5.0 0.00 0.01 0.00 83 1003.5
20260505094553 42 180 0.0 5.0 0.00 0.01 0.00 83 1003.5
20260505093101 42 173 0.0 4.0 0.00 0.01 0.00 83 1003.6
20260505091553 41 142 0.0 0.0 0.00 0.01 0.00 82 1003.6
20260505090049 42 106 0.0 1.0 0.00 0.01 0.00 82 1003.7
20260505084547 42 94 0.0 0.0 0.00 0.01 0.00 82 1003.7
20260505083044 43 115 0.0 0.0 0.00 0.01 0.00 81 1003.8
20260505081556 43 111 0.0 0.0 0.00 0.01 0.00 80 1003.9
20260505080048 43 188 0.0 0.0 0.00 0.01 0.00 79 1004.1
20260505074537 45 188 0.0 0.0 0.00 0.01 0.00 77 1004.1
20260505073039 46 193 0.0 0.0 0.00 0.01 0.00 77 1004.2
20260505071537 46 193 0.0 3.0 0.00 0.01 0.00 76 1004.4
20260505070032 46 182 2.0 6.0 0.00 0.01 0.00 78 1004.5
20260505064529 45 173 2.0 7.0 0.00 0.01 0.00 79 1004.5
20260505063028 45 180 0.0 4.0 0.00 0.01 0.00 79 1004.3
20260505061532 45 178 0.0 3.0 0.00 0.01 0.00 79 1004.4
20260505060026 45 195 0.0 5.0 0.00 0.01 0.00 80 1004.4
20260505054526 45 207 2.0 7.0 0.00 0.01 0.00 79 1004.6
20260505053035 45 190 1.0 7.0 0.00 0.01 0.00 80 1004.3
20260505051536 45 193 0.0 0.0 0.00 0.01 0.00 79 1004.3
20260505041521 45 171 0.0 0.0 0.00 0.01 0.00 77 1004.7
20260505040015 45 194 1.0 5.0 0.00 0.01 0.01 77 1004.6
20260505034513 45 190 1.0 5.0 0.00 0.01 0.01 77 1004.4
20260505033013 44 186 0.0 0.0 0.00 0.01 0.01 76 1004.3
20260505031512 45 194 0.0 0.0 0.00 0.01 0.01 75 1004.3
20260505030012 45 196 0.0 2.0 0.00 0.01 0.01 74 1004.4
20260505024511 45 192 0.0 0.0 0.00 0.01 0.01 74 1004.3
20260505023014 45 184 0.0 6.0 0.00 0.01 0.01 73 1004.3
20260505021510 45 195 1.0 5.0 0.00 0.01 0.01 74 1004.3
20260505020009 45 204 0.0 3.0 0.00 0.01 0.01 74 1004.3
20260505014508 45 196 0.0 0.0 0.00 0.01 0.01 73 1004.3
20260505013007 44 190 0.0 0.0 0.00 0.01 0.01 73 1004.1
20260505011506 44 190 0.0 0.0 0.00 0.01 0.01 72 1003.8
20260505010012 44 187 0.0 3.0 0.00 0.02 0.01 72 1003.8
20260505004503 45 203 0.0 2.0 0.00 0.02 0.01 71 1003.8
20260505003008 45 192 0.0 3.0 0.01 0.02 0.01 70 1003.6
20260505001559 45 220 0.0 4.0 0.01 0.02 0.01 69 1003.2
20260505000056 46 197 0.0 4.0 0.01 0.02 0.01 69 1003.0
20260504234554 46 202 0.0 3.0 0.01 0.02 0.01 68 1002.7
20260504233055 47 177 0.0 4.0 0.00 0.01 0.00 67 1002.4
20260504231557 47 163 0.0 5.0 0.00 0.01 0.00 67 1002.3
20260504230052 48 190 0.0 4.0 0.00 0.03 0.00 66 1002.0